• Em Portugal
  • Lista de países
  • Para 7 dias
  • Temperatura da água
  • Mapas de satélite
  • Mapa do tempo
  • Widgets de tempo
  • user-avatar
    Iniciar Sessão

    Previsão horária em São Luis

    Hoje, 23 Maio, Quarta-feira

    Tempo Temperatura Precipitação Vento Pressão Humidade
    00:00 +11°C° 0 mm 3 m/s 702 mmHg 67%
    01:00 +10°C° 0 mm 4 m/s 701 mmHg 69%
    02:00 +10°C° 0 mm 4 m/s 701 mmHg 72%
    03:00 +10°C° 0 mm 4 m/s 701 mmHg 73%
    04:00 +10°C° 0 mm 4 m/s 701 mmHg 75%
    05:00 +10°C° 0 mm 4 m/s 701 mmHg 76%
    06:00 +10°C° 0 mm 3 m/s 701 mmHg 75%
    07:00 +10°C° 0 mm 3 m/s 702 mmHg 73%
    08:00 +10°C° 0 mm 3 m/s 702 mmHg 71%
    09:00 +13°C° 0 mm 4 m/s 702 mmHg 63%
    10:00 +15°C° 0 mm 4 m/s 703 mmHg 55%
    11:00 +17°C° 0 mm 5 m/s 704 mmHg 46%
    12:00 +19°C° 0 mm 5 m/s 703 mmHg 45%
    13:00 +20°C° 0 mm 5 m/s 703 mmHg 44%
    14:00 +20°C° 0 mm 5 m/s 703 mmHg 43%
    15:00 +20°C° 0 mm 4 m/s 703 mmHg 46%
    16:00 +19°C° 0 mm 4 m/s 702 mmHg 49%
    17:00 +18°C° 0 mm 3 m/s 702 mmHg 53%
    18:00 +17°C° 0 mm 3 m/s 702 mmHg 59%
    19:00 +14°C° 0 mm 3 m/s 702 mmHg 65%
    20:00 +12°C° 0 mm 3 m/s 703 mmHg 71%
    21:00 +12°C° 0 mm 3 m/s 703 mmHg 73%
    22:00 +12°C° 0 mm 3 m/s 703 mmHg 74%
    23:00 +12°C° 0 mm 3 m/s 703 mmHg 76%

    Amanhã, 24 Maio, Quinta-feira

    Tempo Temperatura Precipitação Vento Pressão Humidade
    00:00 +11°C° 0 mm 3 m/s 703 mmHg 78%
    01:00 +11°C° 0 mm 4 m/s 703 mmHg 79%
    02:00 +11°C° 0 mm 4 m/s 703 mmHg 81%
    03:00 +11°C° 0 mm 4 m/s 703 mmHg 81%
    04:00 +11°C° 0 mm 4 m/s 703 mmHg 82%
    05:00 +11°C° 0 mm 4 m/s 702 mmHg 82%
    06:00 +11°C° 0 mm 4 m/s 703 mmHg 81%
    07:00 +11°C° 0 mm 4 m/s 703 mmHg 80%
    08:00 +11°C° 0 mm 4 m/s 703 mmHg 78%
    09:00 +13°C° 0 mm 5 m/s 703 mmHg 68%
    10:00 +16°C° 0 mm 5 m/s 704 mmHg 58%
    11:00 +19°C° 0 mm 5 m/s 704 mmHg 48%
    12:00 +20°C° 0 mm 5 m/s 704 mmHg 45%
    13:00 +21°C° 0 mm 5 m/s 703 mmHg 41%
    14:00 +21°C° 0 mm 5 m/s 702 mmHg 38%
    15:00 +21°C° 0 mm 4 m/s 702 mmHg 41%
    16:00 +20°C° 0 mm 4 m/s 701 mmHg 44%
    17:00 +19°C° 0 mm 4 m/s 701 mmHg 47%
    18:00 +17°C° 0 mm 4 m/s 701 mmHg 52%
    19:00 +15°C° 0 mm 4 m/s 701 mmHg 58%
    20:00 +13°C° 0 mm 4 m/s 701 mmHg 63%
    21:00 +13°C° 0 mm 4 m/s 701 mmHg 64%
    22:00 +13°C° 0 mm 5 m/s 701 mmHg 65%
    23:00 +13°C° 0 mm 5 m/s 701 mmHg 66%

    Depois de amanhã, 25 Maio, Sexta-feira

    Tempo Temperatura Precipitação Vento Pressão Humidade
    00:00 +12°C° 0 mm 5 m/s 701 mmHg 67%
    01:00 +12°C° 0 mm 5 m/s 701 mmHg 67%
    02:00 +12°C° 0 mm 5 m/s 701 mmHg 68%
    03:00 +12°C° 0 mm 5 m/s 701 mmHg 69%
    04:00 +10°C° 0 mm 5 m/s 701 mmHg 70%
    05:00 +10°C° 0 mm 5 m/s 700 mmHg 72%
    06:00 +10°C° 0 mm 5 m/s 701 mmHg 70%
    07:00 +10°C° 0 mm 5 m/s 701 mmHg 69%
    08:00 +10°C° 0 mm 5 m/s 701 mmHg 68%
    09:00 +14°C° 0 mm 5 m/s 701 mmHg 59%
    10:00 +16°C° 0 mm 6 m/s 702 mmHg 50%
    11:00 +19°C° 0 mm 6 m/s 702 mmHg 42%
    12:00 +20°C° 0 mm 6 m/s 701 mmHg 39%
    13:00 +21°C° 0 mm 6 m/s 701 mmHg 36%
    14:00 +22°C° 0 mm 6 m/s 700 mmHg 33%
    15:00 +21°C° 0 mm 6 m/s 699 mmHg 37%
    16:00 +20°C° 0 mm 5 m/s 699 mmHg 40%
    17:00 +19°C° 0 mm 5 m/s 698 mmHg 43%
    18:00 +17°C° 0 mm 5 m/s 698 mmHg 48%
    19:00 +15°C° 0 mm 6 m/s 697 mmHg 52%
    20:00 +14°C° 0 mm 6 m/s 697 mmHg 56%
    21:00 +14°C° 0 mm 6 m/s 697 mmHg 56%
    22:00 +14°C° 0 mm 7 m/s 697 mmHg 55%
    23:00 +12°C° 0 mm 8 m/s 697 mmHg 55%

    26 Maio, Sábado

    Tempo Temperatura Precipitação Vento Pressão Humidade
    00:00 +12°C° 0 mm 8 m/s 697 mmHg 56%
    01:00 +12°C° 0 mm 8 m/s 696 mmHg 57%
    02:00 +12°C° 0 mm 8 m/s 696 mmHg 58%
    03:00 +12°C° 0 mm 7 m/s 696 mmHg 59%
    04:00 +11°C° 0 mm 7 m/s 695 mmHg 60%
    05:00 +11°C° 0 mm 7 m/s 695 mmHg 62%
    06:00 +11°C° 0 mm 7 m/s 695 mmHg 61%
    07:00 +11°C° 0 mm 6 m/s 696 mmHg 61%
    08:00 +11°C° 0 mm 6 m/s 696 mmHg 61%
    09:00 +15°C° 0 mm 6 m/s 697 mmHg 54%
    10:00 +17°C° 0 mm 6 m/s 697 mmHg 46%
    11:00 +20°C° 0 mm 6 m/s 698 mmHg 39%
    12:00 +21°C° 0 mm 6 m/s 697 mmHg 37%
    13:00 +22°C° 0 mm 6 m/s 697 mmHg 35%
    14:00 +23°C° 0 mm 5 m/s 696 mmHg 32%
    15:00 +22°C° 0 mm 4 m/s 696 mmHg 36%
    16:00 +21°C° 0 mm 4 m/s 696 mmHg 40%
    17:00 +19°C° 0 mm 3 m/s 696 mmHg 44%
    18:00 +18°C° 0 mm 3 m/s 697 mmHg 49%
    19:00 +16°C° 0 mm 3 m/s 697 mmHg 54%
    20:00 +14°C° 0 mm 3 m/s 698 mmHg 59%
    21:00 +13°C° 0 mm 3 m/s 698 mmHg 63%
    22:00 +14°C° 0 mm 2 m/s 699 mmHg 67%
    23:00 +13°C° 0 mm 2 m/s 699 mmHg 71%

    27 Maio, Domingo

    Tempo Temperatura Precipitação Vento Pressão Humidade
    00:00 +13°C° 0 mm 2 m/s 699 mmHg 73%
    01:00 +12°C° 0 mm 2 m/s 700 mmHg 75%
    02:00 +12°C° 0 mm 2 m/s 700 mmHg 77%
    03:00 +12°C° 0 mm 2 m/s 700 mmHg 78%
    04:00 +11°C° 0 mm 3 m/s 700 mmHg 78%
    05:00 +11°C° 0 mm 3 m/s 700 mmHg 79%
    06:00 +11°C° 0 mm 3 m/s 701 mmHg 78%
    07:00 +11°C° 0 mm 3 m/s 701 mmHg 77%
    08:00 +11°C° 0 mm 3 m/s 702 mmHg 76%
    09:00 +13°C° 0 mm 3 m/s 702 mmHg 68%
    10:00 +15°C° 0 mm 4 m/s 703 mmHg 61%
    11:00 +18°C° 0 mm 4 m/s 703 mmHg 53%
    12:00 +19°C° 0 mm 4 m/s 702 mmHg 49%
    13:00 +20°C° 0 mm 4 m/s 702 mmHg 46%
    14:00 +21°C° 0 mm 4 m/s 701 mmHg 43%
    15:00 +21°C° 0 mm 3 m/s 700 mmHg 46%
    16:00 +20°C° 0 mm 3 m/s 700 mmHg 49%
    17:00 +20°C° 0 mm 3 m/s 699 mmHg 51%
    18:00 +18°C° 0 mm 3 m/s 699 mmHg 58%
    19:00 +17°C° 0 mm 3 m/s 699 mmHg 65%
    20:00 +14°C° 0 mm 3 m/s 699 mmHg 72%
    21:00 +14°C° 0 mm 3 m/s 698 mmHg 74%
    22:00 +14°C° 0 mm 4 m/s 698 mmHg 76%
    23:00 +14°C° 0 mm 4 m/s 698 mmHg 78%

    28 Maio, Segunda-feira

    Tempo Temperatura Precipitação Vento Pressão Humidade
    00:00 +14°C° 0 mm 4 m/s 698 mmHg 79%
    01:00 +14°C° 0 mm 5 m/s 697 mmHg 81%
    02:00 +14°C° 0 mm 6 m/s 697 mmHg 82%
    03:00 +14°C° 0 mm 6 m/s 696 mmHg 83%
    04:00 +14°C° 0 mm 7 m/s 695 mmHg 83%
    05:00 +14°C° 0 mm 7 m/s 695 mmHg 84%
    06:00 +13°C° 0 mm 8 m/s 694 mmHg 83%
    07:00 +15°C° 0 mm 8 m/s 694 mmHg 83%
    08:00 +15°C° 0 mm 8 m/s 694 mmHg 82%
    09:00 +17°C° 0 mm 10 m/s 694 mmHg 74%
    10:00 +19°C° 0 mm 11 m/s 693 mmHg 66%
    11:00 +22°C° 0 mm 13 m/s 693 mmHg 57%
    12:00 +23°C° 0 mm 13 m/s 692 mmHg 55%
    13:00 +23°C° 0 mm 13 m/s 691 mmHg 52%
    14:00 +24°C° 0 mm 13 m/s 690 mmHg 49%
    15:00 +23°C° 0 mm 12 m/s 690 mmHg 53%
    16:00 +22°C° 0 mm 10 m/s 690 mmHg 57%
    17:00 +21°C° 0 mm 9 m/s 690 mmHg 61%
    18:00 +20°C° 0 mm 8 m/s 690 mmHg 66%
    19:00 +18°C° 0 mm 8 m/s 690 mmHg 71%
    20:00 +18°C° 0 mm 7 m/s 691 mmHg 76%
    21:00 +18°C° 0 mm 7 m/s 691 mmHg 77%
    22:00 +18°C° 0 mm 7 m/s 691 mmHg 78%
    23:00 +19°C° 0 mm 6 m/s 691 mmHg 79%
    Mostrar mais